TimeEDT,TemperatureF,Dew PointF,Humidity,Sea Level PressureIn,VisibilityMPH,Wind Direction,Wind SpeedMPH,Gust SpeedMPH,PrecipitationIn,Events,Conditions,WindDirDegrees,DateUTC
12:15 AM,60.8,56.5,86,29.89,10.0,Calm,Calm,-,N/A,,Mostly Cloudy,0,2013-09-05 04:15:00
12:35 AM,60.1,57.2,90,29.88,10.0,Calm,Calm,-,N/A,,Mostly Cloudy,0,2013-09-05 04:35:00
12:55 AM,59.9,57.7,93,29.88,10.0,Calm,Calm,-,N/A,,Overcast,0,2013-09-05 04:55:00
1:15 AM,60.3,58.1,93,29.88,10.0,Calm,Calm,-,N/A,,Overcast,0,2013-09-05 05:15:00
1:35 AM,60.4,58.1,92,29.88,10.0,Calm,Calm,-,N/A,Rain,Rain,0,2013-09-05 05:35:00
1:55 AM,60.8,58.5,92,29.88,10.0,Calm,Calm,-,N/A,Rain,Rain,0,2013-09-05 05:55:00
2:15 AM,60.8,57.4,88,29.88,10.0,Calm,Calm,-,N/A,Rain,Light Rain,0,2013-09-05 06:15:00
2:35 AM,60.8,57.2,88,29.88,10.0,Calm,Calm,-,N/A,Rain,Rain,0,2013-09-05 06:35:00
2:55 AM,60.1,57.2,90,29.88,7.0,Calm,Calm,-,0.01,,Drizzle,0,2013-09-05 06:55:00
3:15 AM,59.9,57.2,91,29.88,10.0,Calm,Calm,-,N/A,Rain,Rain,0,2013-09-05 07:15:00
3:35 AM,59.9,57.2,91,29.88,7.0,Calm,Calm,-,N/A,,Light Drizzle,0,2013-09-05 07:35:00
3:55 AM,59.4,57.2,93,29.88,5.0,West,3.5,-,0.01,Rain,Light Rain,260,2013-09-05 07:55:00
4:15 AM,59.0,55.8,89,29.88,10.0,West,3.5,-,N/A,,Overcast,280,2013-09-05 08:15:00
4:35 AM,58.6,54.9,87,29.89,10.0,West,4.6,-,N/A,,Overcast,270,2013-09-05 08:35:00
4:55 AM,58.3,55.0,89,29.89,10.0,NNW,3.5,-,N/A,,Overcast,330,2013-09-05 08:55:00
5:15 AM,57.2,53.8,88,29.90,10.0,NW,4.6,-,N/A,,Overcast,310,2013-09-05 09:15:00
5:35 AM,57.4,53.4,87,29.90,10.0,NW,3.5,-,N/A,,Overcast,310,2013-09-05 09:35:00
5:55 AM,57.4,53.2,86,29.89,10.0,WNW,3.5,-,N/A,,Overcast,300,2013-09-05 09:55:00
6:15 AM,57.6,52.9,84,29.91,10.0,WNW,3.5,-,N/A,,Overcast,290,2013-09-05 10:15:00
6:35 AM,57.6,53.1,85,29.92,10.0,WNW,5.8,-,N/A,,Overcast,290,2013-09-05 10:35:00
6:55 AM,57.9,52.9,83,29.94,10.0,West,6.9,-,N/A,,Overcast,280,2013-09-05 10:55:00
7:15 AM,58.1,53.1,83,29.95,10.0,West,6.9,-,N/A,,Overcast,280,2013-09-05 11:15:00
7:35 AM,57.9,53.4,85,29.96,10.0,West,5.8,-,N/A,,Mostly Cloudy,280,2013-09-05 11:35:00
7:55 AM,58.1,53.2,84,29.96,10.0,West,5.8,-,N/A,,Scattered Clouds,280,2013-09-05 11:55:00
8:15 AM,57.4,52.7,84,29.97,10.0,WNW,8.1,-,N/A,,Clear,290,2013-09-05 12:15:00
8:35 AM,57.6,52.2,82,29.96,10.0,WNW,5.8,-,N/A,,Mostly Cloudy,290,2013-09-05 12:35:00
8:55 AM,57.4,50.7,78,29.97,10.0,WNW,9.2,-,N/A,,Overcast,300,2013-09-05 12:55:00
9:15 AM,56.8,49.5,76,29.97,10.0,West,6.9,-,N/A,,Scattered Clouds,280,2013-09-05 13:15:00
9:35 AM,57.6,48.7,72,29.98,10.0,West,6.9,-,N/A,,Clear,280,2013-09-05 13:35:00
9:55 AM,57.6,48.4,71,29.98,10.0,WNW,8.1,-,N/A,,Clear,300,2013-09-05 13:55:00
10:15 AM,60.3,45.9,59,29.98,10.0,WNW,6.9,-,N/A,,Clear,290,2013-09-05 14:15:00
10:35 AM,61.3,43.5,52,29.99,10.0,WNW,10.4,-,N/A,,Clear,290,2013-09-05 14:35:00
10:55 AM,62.2,39.6,43,29.99,10.0,NW,15.0,21.9,N/A,,Clear,310,2013-09-05 14:55:00
11:15 AM,62.8,36.0,37,29.99,10.0,NNW,12.7,20.7,N/A,,Clear,330,2013-09-05 15:15:00
11:35 AM,63.7,37.9,39,30.00,10.0,NW,10.4,-,N/A,,Clear,310,2013-09-05 15:35:00
11:55 AM,63.3,38.8,40,29.99,10.0,NW,12.7,18.4,N/A,,Clear,310,2013-09-05 15:55:00
12:15 PM,63.9,39.2,40,29.99,10.0,NNW,10.4,17.3,N/A,,Clear,330,2013-09-05 16:15:00
12:35 PM,64.6,40.6,42,29.99,10.0,NW,9.2,16.1,N/A,,Clear,320,2013-09-05 16:35:00
12:55 PM,64.8,39.4,39,29.99,10.0,NNW,12.7,17.3,N/A,,Clear,340,2013-09-05 16:55:00
1:15 PM,64.6,36.1,35,29.99,10.0,NW,11.5,20.7,N/A,,Clear,320,2013-09-05 17:15:00
1:35 PM,64.9,37.2,36,30.00,10.0,North,11.5,17.3,N/A,,Scattered Clouds,350,2013-09-05 17:35:00
1:55 PM,64.9,35.2,33,30.00,10.0,NNW,11.5,18.4,N/A,,Mostly Cloudy,340,2013-09-05 17:55:00
2:15 PM,65.1,33.8,31,30.00,10.0,North,10.4,18.4,N/A,,Scattered Clouds,350,2013-09-05 18:15:00
2:35 PM,64.6,32.4,30,29.99,10.0,WNW,6.9,18.4,N/A,,Scattered Clouds,290,2013-09-05 18:35:00
2:55 PM,64.8,35.6,34,30.00,10.0,NW,8.1,17.3,N/A,,Mostly Cloudy,320,2013-09-05 18:55:00
3:15 PM,64.4,34.7,33,30.01,10.0,NW,9.2,16.1,N/A,,Overcast,320,2013-09-05 19:15:00
3:35 PM,64.6,35.6,34,30.01,10.0,WNW,10.4,16.1,N/A,,Mostly Cloudy,290,2013-09-05 19:35:00
3:55 PM,64.0,35.6,35,30.02,10.0,NW,5.8,-,N/A,,Mostly Cloudy,310,2013-09-05 19:55:00
4:15 PM,64.2,35.1,34,30.02,10.0,NW,10.4,-,N/A,,Scattered Clouds,310,2013-09-05 20:15:00
4:35 PM,65.5,35.2,33,30.02,10.0,NNW,11.5,19.6,N/A,,Mostly Cloudy,340,2013-09-05 20:35:00
4:55 PM,61.9,36.5,39,30.03,10.0,NW,8.1,-,N/A,,Mostly Cloudy,320,2013-09-05 20:55:00
5:15 PM,63.1,38.7,40,30.03,10.0,NW,10.4,-,N/A,,Scattered Clouds,320,2013-09-05 21:15:00
5:35 PM,62.6,36.1,37,30.04,10.0,NW,6.9,-,N/A,,Scattered Clouds,320,2013-09-05 21:35:00
5:55 PM,62.8,35.4,36,30.04,10.0,WNW,8.1,-,N/A,,Scattered Clouds,300,2013-09-05 21:55:00
6:15 PM,62.4,36.9,39,30.05,10.0,WNW,4.6,-,N/A,,Scattered Clouds,300,2013-09-05 22:15:00
6:35 PM,60.8,38.3,43,30.06,10.0,NNW,4.6,-,N/A,,Scattered Clouds,330,2013-09-05 22:35:00
6:55 PM,59.2,37.6,45,30.07,10.0,NW,6.9,-,N/A,,Clear,310,2013-09-05 22:55:00
7:15 PM,56.7,39.7,53,30.07,10.0,West,3.5,-,N/A,,Clear,280,2013-09-05 23:15:00
7:35 PM,52.5,43.7,72,30.08,10.0,West,3.5,-,N/A,,Clear,280,2013-09-05 23:35:00
7:55 PM,52.9,41.9,66,30.09,10.0,West,4.6,-,N/A,,Clear,280,2013-09-05 23:55:00
8:15 PM,52.5,41.9,67,30.10,10.0,West,4.6,-,N/A,,Clear,280,2013-09-06 00:15:00
8:35 PM,50.9,42.1,72,30.11,10.0,Calm,Calm,-,N/A,,Clear,0,2013-09-06 00:35:00
8:55 PM,48.6,43.3,82,30.12,10.0,Calm,Calm,-,N/A,,Clear,0,2013-09-06 00:55:00
9:15 PM,47.8,43.5,85,30.12,10.0,Calm,Calm,-,N/A,,Clear,0,2013-09-06 01:15:00
9:35 PM,46.4,43.3,89,30.13,10.0,Calm,Calm,-,N/A,,Clear,0,2013-09-06 01:35:00
9:55 PM,46.2,42.6,87,30.14,10.0,Calm,Calm,-,N/A,,Clear,0,2013-09-06 01:55:00
10:15 PM,45.1,42.1,89,30.15,10.0,Calm,Calm,-,N/A,,Clear,0,2013-09-06 02:15:00
10:35 PM,45.0,42.3,90,30.15,10.0,Calm,Calm,-,N/A,,Clear,0,2013-09-06 02:35:00
10:55 PM,46.8,40.6,79,30.16,10.0,Calm,Calm,-,N/A,,Clear,0,2013-09-06 02:55:00
11:15 PM,43.9,41.9,93,30.16,10.0,Calm,Calm,-,N/A,,Clear,0,2013-09-06 03:15:00
11:35 PM,43.0,41.4,94,30.16,10.0,Calm,Calm,-,N/A,,Clear,0,2013-09-06 03:35:00
11:55 PM,42.6,41.0,94,30.16,10.0,Calm,Calm,-,N/A,,Clear,0,2013-09-06 03:55:00